Other Public Products
Issued by NWS Grand Forks, ND

Home | Current Version | Previous Version | Graphics & Text | Print | Product List | Glossary On
Versions: 1 2 3 4 5 6 7 8 9 10 11 12 13 14 15 16 17 18 19 20 21 22 23 24 25 26 27 28 29 30 31 32 33 34 35 36 37 38 39 40 41 42 43 44 45 46 47 48 49 50
000
FPUS83 KFGF 250010
OPUFGF
PRAIRIE TO PINES WEATHER ROUNDUP
NATIONAL WEATHER SERVICE EASTERN NORTH DAKOTA/GRAND FORKS ND
600 PM CST FRI NOV 24 2017

 **SATELLITE DATA USED TO AUGMENT SKY COVER AT AUTOMATED STATIONS**
 *****  WEATHER ACROSS EASTERN NORTH DAKOTA  *****

CITY           SKY/WX    TMP DP  RH WIND       PRES   REMARKS
GRAND FORKS    FAIR      40  34  79 NW12      29.62R
6HR MIN TEMP:  39; 6HR MAX TEMP:  46;

GRND FORKS AFB FAIR      39  33  79 NW10      29.62R
GRND FORKS NWS   N/A     37 N/A N/A NW10        N/A
BUXTON         NOT AVBL
DEVILS LAKE    FAIR      38  32  79 W16       29.68R
6HR MIN TEMP:  38; 6HR MAX TEMP:  45;

FARGO          FAIR      39  33  79 W10       29.64R
6HR MIN TEMP:  39; 6HR MAX TEMP:  51;

WAHPETON ARPT  NOT AVBL
$$

 *****  WEATHER ACROSS CENTRAL AND WESTERN NORTH DAKOTA  *****

CITY           SKY/WX    TMP DP  RH WIND       PRES   REMARKS
JAMESTOWN      FAIR      41  34  76 W13       29.70R
6HR MIN TEMP:  41; 6HR MAX TEMP:  50;

BISMARCK       FAIR      48  32  53 W10       29.80R
6HR MIN TEMP:  48; 6HR MAX TEMP:  56;

MINOT          FAIR      42  31  64 W15       29.74R
6HR MIN TEMP:  42; 6HR MAX TEMP:  52;

MINOT AFB      FAIR      39  30  69 NW13      29.73R
6HR MIN TEMP:  39; 6HR MAX TEMP:  51;

GARRISON         N/A     41  32  70 W9        29.77R
6HR MIN TEMP:  41; 6HR MAX TEMP:  50;

WILLISTON      FAIR      45  32  60 W16       29.79R
6HR MIN TEMP:  45; 6HR MAX TEMP:  53;

DICKINSON      FAIR      36  27  69 W10       29.82R
6HR MIN TEMP:  36; 6HR MAX TEMP:  51;

HETTINGER      FAIR      35  28  75 NW9       29.88R
6HR MIN TEMP:  35; 6HR MAX TEMP:  51;

$$

 *****  OTHER OBSERVATIONS NORTHEAST NORTH DAKOTA  *****

CITY           SKY/WX    TMP DP  RH WIND       PRES   REMARKS
WALHALLA       FAIR      37  34  87 NW15G22   29.61R
LANGDON        FAIR      36  34  93 NW20      29.62R
CAVALIER       FAIR      39  30  70 NW16G23   29.61R
GRAFTON        FAIR      37  32  81 NW16      29.64R
CANDO          FAIR      37  34  87 W13       29.68R
FORT TOTTEN      N/A     39  32  75 NW8       29.95S
ROLLA          FAIR      37  30  75 NW17G24   29.67R
RUGBY          FAIR      37  32  81 NW15G21   29.70R
 ***** THE ABOVE OBSERVATIONS ARE NON NWS ARE NOT QUALITY
        CONTROLLED AND MAY MIS-REPORT RAIN FOR SNOW...
$$

 *****  OTHER OBSERVATIONS SOUTHEAST NORTH DAKOTA *****

CITY           SKY/WX    TMP DP  RH WIND       PRES   REMARKS
COOPERSTOWN    FAIR      39  34  81 NW16G23   29.67R
VALLEY CITY    FAIR      41  37  87 W15       29.70R
OAKES            N/A     39  34  81 W9        29.74R
GWINNER          N/A     45  36  70 W10       29.71R
SHEYENNE NWR     N/A     42  34  74 W8        29.95S
BUFFALO        NOT AVBL
WYNDMERE       NOT AVBL
 ***** THE ABOVE OBSERVATIONS ARE NON NWS ARE NOT QUALITY
       CONTROLLED AND MAY MIS-REPORT RAIN FOR SNOW...
$$

  *****  WEATHER ACROSS NORTHERN MINNESOTA  *****

CITY           SKY/WX    TMP DP  RH WIND       PRES   REMARKS
FLAG ISLAND    CLOUDY    34  27  75 NW18G24   29.49R WCI  23
WARROAD        CLOUDY    37  32  81 W13       29.51R
ROSEAU         MOCLDY    37  32  81 W12G17    29.53R
HALLOCK        FAIR      36  32  87 NW13      29.58R
THF RVR FALLS  CLOUDY    37  32  82 NW13      29.60R
6HR MIN TEMP:  36; 6HR MAX TEMP:  42;

HALSTAD        NOT AVBL
FOSSTON        FAIR      36  32  87 W7        29.60R
BAUDETTE       CLOUDY    38  28  67 W13G22    29.48R
6HR MIN TEMP:  37; 6HR MAX TEMP:  41;

WASKISH        CLOUDY    37  32  81 W10       29.52R
CROOKSTON      FAIR      37  34  87 NW13      29.61R
$$
  *****  WEATHER ACROSS CENTRAL AND WEST MINNESOTA  *****

CITY           SKY/WX    TMP DP  RH WIND       PRES   REMARKS
BEMIDJI        FAIR      35  32  87 W12       29.55R
6HR MIN TEMP:  35; 6HR MAX TEMP:  44;

PARK RAPIDS    FAIR      38  32  79 W12       29.58R
6HR MIN TEMP:  38; 6HR MAX TEMP:  45; 6HR PCP: TRACE;

WADENA         FAIR      39  34  81 W10       29.61R
DETROIT LAKES  FAIR      37  34  87 W8        29.62R
MOORHEAD       FAIR      43  34  70 W15       29.65R
FERGUS FALLS   FAIR      37  32  81 NW13      29.67R
ELBOW LAKE     FAIR      38  33  83 NW9       29.65R HAZE
MORRIS MN      FAIR      41  34  75 NW12      29.66R
STAPLES        FAIR      37  34  87 W12G20    29.59R
WHEATON        FAIR      43  30  61 W8          N/A
$$
  *****  WEATHER ELSEWHERE ACROSS MINNESOTA  *****

CITY           SKY/WX    TMP DP  RH WIND       PRES   REMARKS
DULUTH         CLOUDY    39  36  89 NW15G28   29.45R
6HR MIN TEMP:  38; 6HR MAX TEMP:  41; 6HR PCP:  0.03;

INTRNTL FALLS  CLOUDY    38  28  67 NW8       29.46R
6HR MIN TEMP:  38; 6HR MAX TEMP:  41;

ELY            CLOUDY    37  30  75 NW7       29.42R
CLOQUET        CLOUDY    39  36  87 W9        29.48R
BRAINERD       FAIR      42  34  73 W9        29.56R
6HR MIN TEMP:  42; 6HR MAX TEMP:  49; 6HR PCP: TRACE;

HIBBING        MOCLDY    38  34  85 W8        29.47R
6HR MIN TEMP:  37; 6HR MAX TEMP:  40; 6HR PCP:  0.02;

ALEXANDRIA     FAIR      42  35  76 NW12      29.64R
6HR MIN TEMP:  42; 6HR MAX TEMP:  49;

SAINT CLOUD    FAIR      43  36  76 W15       29.59R
6HR MIN TEMP:  43; 6HR MAX TEMP:  57; 6HR PCP: TRACE;

MINNEAPOLIS    FAIR      46  40  79 W8        29.57R
6HR MIN TEMP:  45; 6HR MAX TEMP:  60; 6HR PCP: TRACE;

$$

  *****  WEATHER ACROSS SOUTH DAKOTA  *****

CITY           SKY/WX    TMP DP  RH WIND       PRES   REMARKS
SIOUX FALLS    FAIR      47  36  65 NW14      29.75R
6HR MIN TEMP:  47; 6HR MAX TEMP:  66;

BROOKINGS      FAIR      41  32  70 NW12      29.74R
WATERTOWN      FAIR      42  34  73 W9        29.73R
6HR MIN TEMP:  42; 6HR MAX TEMP:  53;

HURON          FAIR      39  31  72 W8        29.78R
6HR MIN TEMP:  39; 6HR MAX TEMP:  58;

SISSETON         N/A     45  36  70 W14       29.69R
ABERDEEN       FAIR      46  35  65 W15       29.77R
6HR MIN TEMP:  46; 6HR MAX TEMP:  56;

MITCHELL       FAIR      45  32  60 W9        29.81R
PIERRE         FAIR      44  35  70 NW9       29.84R
6HR MIN TEMP:  44; 6HR MAX TEMP:  57;

MOBRIDGE       FAIR      44  32  62 NW7       29.79R
RAPID CITY     FAIR      40  25  55 N12       29.89S
6HR MIN TEMP:  40; 6HR MAX TEMP:  54;

$$

  *****  SOME WEATHER IN NEARBY STATES *****

CITY           SKY/WX    TMP DP  RH WIND       PRES   REMARKS
GLASGOW MT     FAIR      40  26  57 W8        29.84R
6HR MIN TEMP:  40; 6HR MAX TEMP:  50;

GREAT FALLS MT FAIR      41  21  44 SW16      29.93R
6HR MIN TEMP:  41; 6HR MAX TEMP:  48;

CHEYENNE WY    FAIR      44  35  70 N6        29.99R
6HR MIN TEMP:  44; 6HR MAX TEMP:  62; 6HR PCP: TRACE;

SCOTTSBLUFF NE FAIR      46  21  37 NW7       29.95R
6HR MIN TEMP:  45; 6HR MAX TEMP:  61;

OMAHA NE       FAIR      59  38  45 NW22      29.74R
6HR MIN TEMP:  59; 6HR MAX TEMP:  72;

DES MOINES IA  MOCLDY    62  38  40 NW20G29   29.63R
6HR MIN TEMP:  58; 6HR MAX TEMP:  70;

DAVENPORT IA   FAIR      59  41  51 W15G23    29.53R
6HR MIN TEMP:  59; 6HR MAX TEMP:  70;

CHICAGO IL     FAIR      56  39  53 S16G24    29.48R
6HR MIN TEMP:  56; 6HR MAX TEMP:  63;

EAU CLAIRE WI  CLOUDY    48  43  82 NW10      29.49R
6HR MIN TEMP:  48; 6HR MAX TEMP:  59; 6HR PCP:  0.08;

LA CROSSE WI   LGT RAIN  54  43  66 NW10      29.48R
6HR MIN TEMP:  54; 6HR MAX TEMP:  65; 6HR PCP: TRACE;

$$

  *****  SOME NATIONAL WEATHER *****

CITY           SKY/WX    TMP DP  RH WIND       PRES   REMARKS
LA GUARDIA NY  FAIR      48  27  44 S6        29.97S



USA.gov is the U.S. government's official web portal to all federal, state and local government web resources and services.